| time (UTC) | temp C | wind direction | speed KPH | gust KPH | rain 1hr cm | rain 24hr cm | rain mn cm | humidity % | barometer mb |
| 20260503184602 | 15 | 360 | 8.0 | 25.7 | 0.00 | 0.00 | 0.00 | 38 | 1014.5 |
| 20260503183047 | 15 | 360 | 4.8 | 19.3 | 0.00 | 0.00 | 0.00 | 39 | 1014.7 |
| 20260503181543 | 15 | 360 | 6.4 | 19.3 | 0.00 | 0.00 | 0.00 | 36 | 1014.8 |
| 20260503180040 | 16 | 360 | 11.3 | 29.0 | 0.00 | 0.00 | 0.00 | 40 | 1014.9 |
| 20260503174536 | 15 | 360 | 4.8 | 19.3 | 0.00 | 0.00 | 0.00 | 40 | 1015.1 |
| 20260503173037 | 15 | 360 | 4.8 | 27.4 | 0.00 | 0.00 | 0.00 | 40 | 1015.2 |
| 20260503171547 | 15 | 360 | 9.7 | 29.0 | 0.00 | 0.00 | 0.00 | 41 | 1015.6 |
| 20260503081502 | 0 | 360 | 0.0 | 0.0 | 0.00 | 0.00 | 0.00 | 85 | 1016.2 |
| 20260503071611 | 1 | 360 | 0.0 | 0.0 | 0.00 | 0.00 | 0.00 | 84 | 1016.2 |
| 20260503054558 | 1 | 360 | 0.0 | 0.0 | 0.00 | 0.00 | 0.00 | 83 | 1016.5 |
| 20260503053049 | 2 | 360 | 0.0 | 0.0 | 0.00 | 0.00 | 0.00 | 83 | 1016.5 |
| 20260503051548 | 2 | 360 | 0.0 | 0.0 | 0.00 | 0.00 | 0.00 | 83 | 1016.5 |
| 20260503050048 | 2 | 360 | 0.0 | 0.0 | 0.00 | 0.00 | 0.00 | 82 | 1016.5 |
| 20260503044551 | 2 | 360 | 0.0 | 0.0 | 0.00 | 0.00 | 0.00 | 81 | 1016.5 |
| 20260503043047 | 2 | 360 | 0.0 | 0.0 | 0.00 | 0.00 | 0.00 | 80 | 1016.5 |
| 20260503041540 | 2 | 360 | 0.0 | 0.0 | 0.00 | 0.00 | 0.00 | 79 | 1016.5 |
| 20260503040040 | 3 | 360 | 0.0 | 0.0 | 0.00 | 0.00 | 0.00 | 79 | 1016.4 |
| 20260503034537 | 3 | 360 | 0.0 | 0.0 | 0.00 | 0.00 | 0.00 | 78 | 1016.4 |
| 20260503033036 | 3 | 360 | 0.0 | 0.0 | 0.00 | 0.00 | 0.00 | 77 | 1016.4 |
| 20260503031536 | 3 | 360 | 0.0 | 0.0 | 0.00 | 0.00 | 0.00 | 77 | 1016.5 |
| 20260503030035 | 4 | 360 | 0.0 | 0.0 | 0.00 | 0.00 | 0.00 | 75 | 1016.4 |
| 20260503024534 | 4 | 360 | 0.0 | 1.6 | 0.00 | 0.00 | 0.00 | 74 | 1016.5 |
| 20260503023034 | 5 | 360 | 0.0 | 1.6 | 0.00 | 0.00 | 0.00 | 72 | 1016.5 |
| 20260503021533 | 5 | 360 | 0.0 | 0.0 | 0.00 | 0.00 | 0.00 | 69 | 1016.4 |
| 20260503020035 | 6 | 360 | 0.0 | 0.0 | 0.00 | 0.00 | 0.00 | 67 | 1016.3 |
| 20260503014532 | 6 | 360 | 0.0 | 0.0 | 0.00 | 0.00 | 0.00 | 64 | 1016.2 |
| 20260503013034 | 7 | 360 | 0.0 | 1.6 | 0.00 | 0.00 | 0.00 | 61 | 1016.1 |
| 20260503011538 | 7 | 360 | 0.0 | 6.4 | 0.00 | 0.00 | 0.00 | 58 | 1015.8 |
| 20260503010036 | 8 | 360 | 1.6 | 6.4 | 0.00 | 0.00 | 0.00 | 57 | 1015.7 |
| 20260503004530 | 8 | 360 | 1.6 | 9.7 | 0.00 | 0.00 | 0.00 | 54 | 1015.6 |
| 20260503003030 | 8 | 360 | 3.2 | 12.9 | 0.00 | 0.00 | 0.00 | 52 | 1015.6 |
| 20260503001529 | 9 | 360 | 3.2 | 17.7 | 0.00 | 0.00 | 0.00 | 51 | 1015.4 |
| 20260503000042 | 10 | 360 | 4.8 | 16.1 | 0.00 | 0.00 | 0.00 | 50 | 1015.2 |
| 20260502234527 | 10 | 360 | 6.4 | 17.7 | 0.00 | 0.00 | 0.00 | 49 | 1015.1 |
| 20260502233028 | 10 | 360 | 8.0 | 16.1 | 0.00 | 0.00 | 0.00 | 47 | 1015.0 |
| 20260502231532 | 10 | 360 | 1.6 | 14.5 | 0.00 | 0.00 | 0.00 | 47 | 1015.0 |
| 20260502230025 | 10 | 360 | 6.4 | 17.7 | 0.00 | 0.00 | 0.00 | 46 | 1014.9 |
| 20260502224526 | 11 | 360 | 4.8 | 22.5 | 0.00 | 0.00 | 0.00 | 42 | 1014.8 |
| 20260502223029 | 12 | 360 | 11.3 | 24.1 | 0.00 | 0.00 | 0.00 | 41 | 1014.7 |
| 20260502221522 | 11 | 360 | 3.2 | 19.3 | 0.00 | 0.00 | 0.00 | 44 | 1014.6 |
| 20260502220022 | 11 | 360 | 6.4 | 20.9 | 0.00 | 0.00 | 0.00 | 44 | 1014.7 |
| 20260502214521 | 12 | 360 | 6.4 | 19.3 | 0.00 | 0.00 | 0.00 | 41 | 1014.6 |
| 20260502213020 | 11 | 360 | 8.0 | 27.4 | 0.00 | 0.00 | 0.00 | 42 | 1014.5 |
| 20260502211526 | 12 | 360 | 6.4 | 19.3 | 0.00 | 0.00 | 0.00 | 44 | 1014.4 |
| 20260502210020 | 12 | 360 | 4.8 | 12.9 | 0.00 | 0.00 | 0.00 | 43 | 1014.4 |
| 20260502204521 | 12 | 360 | 4.8 | 19.3 | 0.00 | 0.00 | 0.00 | 39 | 1014.4 |
| 20260502203016 | 12 | 360 | 8.0 | 25.7 | 0.00 | 0.00 | 0.00 | 43 | 1014.5 |
| 20260502201515 | 12 | 360 | 4.8 | 16.1 | 0.00 | 0.00 | 0.00 | 45 | 1014.6 |
| 20260502200015 | 11 | 360 | 6.4 | 14.5 | 0.00 | 0.00 | 0.00 | 40 | 1014.7 |
| 20260502194512 | 12 | 360 | 3.2 | 17.7 | 0.00 | 0.00 | 0.00 | 42 | 1014.8 |
| 20260502193012 | 12 | 360 | 4.8 | 17.7 | 0.00 | 0.00 | 0.00 | 42 | 1014.8 |
| 20260502191510 | 12 | 360 | 11.3 | 32.2 | 0.00 | 0.00 | 0.00 | 44 | 1014.9 |
| 20260502190010 | 12 | 360 | 9.7 | 20.9 | 0.00 | 0.00 | 0.00 | 45 | 1015.0 |